Погода в Джанае

Россия / Астраханская область     46°37′44″N   48°13′08″E
темп.,
°C
ветер,
м/с
пор.,
м/с
влажн.,
%
обл.,
%
осадки,
мм/ч
давл.,
гПа
погр.,
м
5 августа, чт
чт501:00+31с81337100 0.0 1011490
04:00+28с51042100 0.0 1011264
07:00+29ссв61143100 0.0 1012480
10:00+33ссв6633100 0.0 10121167
13:00+34ссв662984 0.0 10121512
16:00+36с65246 0.0 10122248
19:00+34с662523 0.0 10111299
22:00+30с6112499 0.0 1012311
6 августа, пт
пт601:00+28ссв6112744 0.1 1012291
04:00+26св410300 0.1 1012228
07:00+26св510318 0.0 1013433
10:00+31св772218 0.0 10131356
13:00+35св55160 0.0 10121964
16:00+36св54155 0.0 10102200
19:00+34св46163 0.0 1010558
22:00+29всв48212 0.0 1010116
7 августа, сб
сб701:00+27всв511230 0.0 1010240
04:00+26всв513250 0.0 1010289
07:00+27в714253 0.0 1010495
10:00+34в891864 0.0 10101217
13:00+37в881519 0.0 10091969
16:00+38вюв761537 0.0 10092120
19:00+35вюв68170 0.0 1008773
22:00+28вюв512230 0.0 1009195
8 августа, вс
вс801:00+27в5132561 0.0 1009235
04:00+28в61523100 0.0 1009352
07:00+28всв7132534 0.0 1010372
10:00+35в8101654 0.0 1010837
13:00+40в91012100 0.0 10092098
16:00+39вюв9101291 0.0 10081785
19:00+37вюв71014100 0.0 1008880
22:00+30вюв462033 0.0 100889
9 августа, пн
пн901:00+29юв342518 0.0 100952
04:00+29в5122524 0.0 1009261
07:00+29в7132891 0.0 1009584
10:00+35юв892470 0.0 10091319
13:00+38вюв65216 0.0 10091770
16:00+40в651955 0.0 10082062
19:00+38в451938 0.0 1008542
22:00+30ююв333054 0.0 100922